Home > Weather > Frankfort > Past weeks

Flag for USA Past Weather in Frankfort, Kentucky, USA — Yesterday and Last 2 Weeks

Now
91 °F

Sunny.


Feels Like: 97 °F
Forecast: 76 / 92 °F
Wind: 8 mph from West

Location: Capital City Airport

Current Time: Aug 25, 2016 at 6:09:58 PM

Latest Report: Aug 25, 2016 at 4:53 PM


Visibility: 10 mi

Pressure: 30.05 "Hg

Humidity: 50%

Dew Point: 70 °F

Location of FrankfortLocation

Past Weather in Frankfort — Graph

°F

Frankfort Temperature Yesterday

Maximum temperature yesterday: 89 °F (at 2:53 PM)
Minimum temperature yesterday: 66 °F (at 5:53 AM)
Average temperature yesterday: 78 °F

High & Low Weather Summary for the Past Weeks

 TemperatureHumidityPressure
High91 °F (Aug 15, 3:53 PM)94% (Aug 17, 6:53 AM)30.28 "Hg (Aug 17, 6:53 AM)
Low58 °F (Aug 22, 6:53 AM)38% (Aug 23, 2:53 PM)29.73 "Hg (Aug 20, 7:53 PM)
Average77 °F76%30.04 "Hg
* Reported Aug 10 4:53 PM — Aug 25 4:53 PM, Frankfort, Weather by CustomWeather, © 2016

Note: Actual official high and low records may vary slightly from our data, if they occured in-between our weather recording intervals... More about our weather records

Advertising

Frankfort Weather History for the Previous 24 Hours

Scroll right to see more
 ConditionsComfort  
Time TempWeatherWind HumidityBarometerVisibility
4:53 PM
Thu, Aug 25
91 °FSunny.8 mph50%30.05 "Hg10 mi
3:53 PM91 °FPartly sunny.9 mph49%30.06 "Hg10 mi
2:53 PM91 °FPassing clouds.12 mph50%30.07 "Hg10 mi
1:53 PM90 °FPassing clouds.9 mph56%30.08 "Hg10 mi
12:53 PM89 °FSunny.13 mph55%30.08 "Hg10 mi
11:53 AM89 °FBroken clouds.9 mph61%30.08 "Hg10 mi
10:53 AM85 °FSunny.9 mph68%30.09 "Hg10 mi
9:53 AM83 °FSunny.12 mph74%30.08 "Hg10 mi
8:53 AM79 °FSunny.9 mph79%30.09 "Hg10 mi
7:53 AM76 °FClear.6 mph85%30.09 "Hg10 mi
6:53 AM75 °FClear.7 mph88%30.09 "Hg10 mi
5:53 AM75 °FClear.8 mph88%30.08 "Hg10 mi
4:53 AM75 °FClear.7 mph88%30.07 "Hg10 mi
3:53 AM75 °FClear.6 mph88%30.08 "Hg10 mi
2:53 AM76 °FClear.7 mph85%30.07 "Hg10 mi
1:53 AM76 °FClear.6 mph85%30.06 "Hg10 mi
12:53 AM78 °FClear.7 mph79%30.06 "Hg10 mi
11:53 PM
Wed, Aug 24
79 °FClear.8 mph77%30.06 "Hg10 mi
10:53 PM79 °FClear.8 mph77%30.07 "Hg10 mi
9:53 PM80 °FClear.5 mph71%30.08 "Hg10 mi
8:53 PM83 °FSunny.8 mph65%30.07 "Hg10 mi
7:53 PM85 °FSunny.10 mph61%30.07 "Hg10 mi
6:53 PM87 °FSunny.12 mph59%30.08 "Hg10 mi
Weather by CustomWeather, © 2016

See weather overviewHow to use our weather pages